Find Starlink 5491

NORAD ID: 55332 Int'l Des: 2023-013 Owner: SPXS Country: US Constellation: starlink operational
LEOCIRCULAR

实时位置

正在加载3D地球...

关于 Starlink 5491

正在加载描述...

即将过境

Passes for default location (London). Set your location on the main map for personalized predictions.

高度历史

Loading altitude history...

两行轨道根数

1 55332U 23013B 26124.55592875 .00000292 00000-0 20131-4 0 9992
2 55332 43.0042 333.5062 0001229 265.8827 94.1884 15.27580406180389
Epoch: May 4, 2026 • Age: 10 hours

当前状态

高度 484.9 km
速度 7.62 km/s
星下点 -12.03°S, 52.93°W
发射日期 Jan 26, 2023
运行时间 3.2 years
类型 internet

技术详情

分类 Payload
质量 305.00 kg
干质量 290.00 kg
总质量 305.00 kg
长度 0.20 m
直径 2.80 m
跨度 9.00 m
形状 Box + pan
制造商 SPXS
平台类型 Starlink
阶段状态 In Orbit
所有者/国家 SPXS/US

Most Searched